Location: Newark
(58.8333°N, 23.5833°E)
Time: 17:54:55
(UTC+00:00)

A-11 Canister half - Pass Details

Date: 25 November 2019
Orbit: 1515 x 1684 km, 47.2° (Epoch: 14 December)

Event Time Altitude Azimuth Distance (km) Brightness Sun altitude
Rises 22:01:09 0° 280° (W) 4,945 11.8 -51.9°
Enters shadow 22:03:07 - 273° (W) 4,542 11.5 -52.0°
Reaches altitude 10° 22:07:01 10° 255° (WSW) 3,947 - -52.0°
Maximum altitude 22:10:33 12° 234° (SW) 3,743 - -52.0°
Drops below altitude 10° 22:14:05 10° 213° (SSW) 3,919 - -52.0°
Sets 22:19:54 0° 187° (S) 4,872 - -52.0°
